Theta_e
309 309 309 309 308 308 310 311 312 313 313 314 315 315 316 316 316 318 317 315 315 315 316 317 318 318 319 318 314 308 308 309 316 319 318 314 319 318 318 321 321 320 320 325 350
309 309 308 308 308 309 311 312 313 313 313 314 314 315 315 314 316 316 314 314 315 316 317 317 316 316 314 315 312 309 308 313 316 315 316 315 318 316 318 320 320 320 332 349 345
309 309 308 308 309 310 312 313 313 313 313 313 314 314 313 314 311 313 317 318 317 317 317 318 318 317 315 313 316 311 312 315 318 316 314 316 316 315 316 320 319 320 325 348 345
309 309 309 309 310 311 313 313 314 314 313 313 313 314 316 317 309 316 317 317 318 319 319 317 313 313 313 314 312 315 315 316 317 317 316 316 316 316 316 317 318 318 319 337 350
310 309 309 310 311 312 313 314 314 314 313 313 313 314 317 318 315 315 319 319 319 319 317 315 315 315 316 314 314 316 316 316 316 314 314 316 317 316 316 317 316 316 316 320 320
310 310 310 311 312 313 314 314 315 314 314 313 312 313 318 317 318 319 318 319 319 319 318 316 316 315 317 316 316 316 316 315 315 315 315 317 317 318 315 316 316 315 315 314 317
309 310 311 311 312 313 314 314 315 314 314 313 313 314 318 319 319 318 318 319 319 319 317 318 317 317 317 317 315 316 316 313 315 316 317 316 318 318 315 315 315 315 313 313 312
308 310 311 312 313 314 314 314 314 314 314 316 315 317 318 322 321 319 319 319 319 319 319 319 318 317 318 317 315 317 313 314 315 313 315 315 315 315 314 315 316 313 313 313 313
307 309 311 312 313 314 314 314 314 314 315 315 315 317 316 319 318 320 320 319 320 320 320 320 318 315 315 316 316 312 316 317 316 314 316 315 316 315 314 313 314 313 312 312 312
308 308 310 311 313 314 314 314 315 319 315 318 316 314 318 319 319 320 320 320 318 318 317 316 311 314 311 314 318 316 317 316 317 315 315 314 315 315 313 315 315 314 311 312 313
309 307 309 311 313 314 315 318 316 317 317 316 315 316 319 321 319 319 320 320 317 315 317 315 315 316 315 315 316 317 316 317 317 316 317 316 315 313 316 318 318 318 318 316 309
307 307 308 311 313 314 315 316 319 319 318 317 316 317 319 320 318 318 320 318 317 317 316 315 316 318 318 317 317 317 317 317 315 315 315 314 315 317 317 318 318 318 317 318 320
307 306 308 311 313 316 319 320 320 320 316 319 319 320 321 318 318 320 319 318 318 319 318 318 318 319 319 317 318 317 317 317 316 316 314 314 314 316 317 317 319 317 316 318 318
311 311 312 315 320 319 320 321 319 320 319 322 324 321 318 316 320 320 320 319 319 320 320 320 318 318 316 317 316 317 315 316 317 316 316 313 314 316 317 316 318 318 316 315 317
313 313 316 318 321 319 321 321 319 322 331 326 318 319 316 317 319 321 320 320 320 320 318 320 317 317 317 319 317 317 316 316 317 314 313 314 315 314 315 316 316 318 318 316 315
314 314 316 317 318 321 322 321 321 326 333 320 319 319 318 317 320 321 320 318 319 319 319 318 317 316 318 318 317 315 314 311 310 311 314 316 316 313 317 318 317 317 319 318 316
315 315 315 316 319 321 322 317 324 329 324 322 320 319 318 319 319 321 321 320 320 322 320 318 319 318 316 317 314 311 310 311 314 313 313 312 315 313 316 317 317 318 318 318 317
317 315 317 318 319 322 322 319 327 326 323 322 322 319 321 321 321 322 320 320 319 318 318 320 321 317 314 316 317 314 311 313 319 316 315 313 317 317 316 314 315 315 316 314 315
318 319 321 324 325 323 318 323 326 323 321 323 321 321 321 322 321 321 321 321 320 317 319 319 320 316 315 316 314 315 315 312 313 313 316 314 317 316 315 314 313 314 314 313 312
319 323 325 326 323 325 322 328 321 320 321 320 321 321 322 321 321 320 321 322 319 318 315 316 316 315 318 314 313 314 313 314 312 319 322 318 319 318 316 314 312 311 313 310 309
323 322 321 319 321 319 329 328 320 320 320 320 319 321 320 320 319 319 322 321 320 317 315 314 313 313 315 315 316 314 314 312 312 314 318 320 317 316 315 312 312 311 310 308 307
315 321 320 318 317 318 321 323 319 320 317 318 319 319 318 318 318 319 321 320 317 316 317 315 313 317 315 314 313 314 317 312 312 315 314 316 317 314 313 313 312 311 309 308 307
313 315 321 319 318 316 316 319 318 318 317 317 318 318 317 317 318 317 320 319 317 316 316 311 308 307 310 309 312 317 317 314 310 309 314 313 316 313 313 312 311 310 309 307 307
314 317 312 311 311 317 317 319 317 317 318 315 315 316 317 317 314 316 315 317 318 321 319 312 309 311 312 312 314 318 316 315 313 306 314 315 316 314 313 312 311 310 308 307 308
308 314 311 315 315 316 317 317 319 317 315 313 314 314 317 316 313 317 316 315 317 318 315 311 314 312 313 314 317 317 317 317 317 316 316 314 316 315 313 311 311 309 308 310 310
309 310 308 313 314 317 315 316 315 314 314 315 313 313 313 313 314 314 316 314 314 313 313 310 311 316 318 317 318 318 317 317 317 317 316 316 316 313 311 309 310 311 311 311 310
307 306 310 312 314 313 315 314 314 313 313 313 312 311 313 314 313 312 311 311 312 311 310 310 312 314 318 317 316 315 317 317 317 316 315 314 311 311 311 311 311 311 310 309 309
Wind_Speed
6 6 5 4 3 3 4 6 7 8 10 12 12 13 15 18 18 4 2 2 4 8 12 14 6 11 2 1 3 4 5 2 2 2 3 4 4 1 3 4 3 6 6 8 35
6 6 5 3 4 5 5 7 8 9 11 12 13 14 16 19 11 4 3 3 6 9 11 9 7 9 4 2 2 5 4 6 3 6 1 3 4 2 3 2 4 10 13 27 32
5 5 5 4 5 6 6 7 8 9 11 12 13 14 16 14 5 4 6 10 12 15 11 9 4 2 4 4 2 3 5 6 1 3 7 4 3 1 7 2 5 17 13 21 26
4 5 5 5 5 5 6 7 8 10 11 12 13 16 12 5 4 4 9 13 11 14 12 6 5 5 5 5 4 2 3 4 5 3 1 2 3 4 1 4 7 7 17 19 17
3 4 4 4 4 4 5 7 8 10 10 12 14 17 5 5 4 4 10 13 8 9 13 4 7 3 4 4 2 4 2 2 2 2 4 3 3 3 1 4 6 7 10 17 14
3 4 4 3 3 4 5 7 8 9 9 11 13 15 3 2 4 4 11 14 14 12 10 6 2 1 1 3 4 2 2 2 2 2 2 3 2 3 3 2 4 4 9 10 16
2 3 3 2 1 3 5 7 8 9 9 11 12 12 2 5 4 9 11 12 11 10 5 3 2 6 0 3 4 1 6 8 3 3 2 4 3 4 8 4 6 10 9 9 15
2 2 2 2 1 3 6 8 9 8 9 10 11 4 4 5 9 9 7 5 7 9 6 8 2 3 3 3 8 6 6 6 6 8 6 5 6 6 8 6 7 7 10 9 9
2 3 2 2 3 5 8 9 9 8 9 7 3 4 8 8 4 5 5 5 13 11 14 9 3 3 7 4 5 7 1 3 8 7 5 6 4 6 7 10 11 10 8 8 8
1 3 3 3 4 7 10 13 9 7 1 2 1 3 5 3 3 2 4 8 4 6 8 9 6 4 5 5 1 2 2 2 3 7 8 7 7 7 17 16 12 13 10 10 10
4 1 3 3 4 8 13 3 6 4 3 4 2 3 4 9 3 2 4 4 5 8 6 5 8 5 10 4 2 3 3 1 2 0 1 4 3 9 7 13 15 14 15 12 9
7 3 1 1 4 7 9 2 3 2 5 6 5 5 10 7 3 4 3 4 5 4 6 7 4 3 7 2 4 4 3 3 4 4 2 4 5 5 7 6 10 14 14 14 12
8 5 2 1 4 5 8 8 9 12 3 7 4 4 5 6 2 1 3 2 4 5 5 3 3 4 2 2 4 2 3 3 5 4 3 4 3 3 3 5 9 12 10 13 14
7 5 3 4 2 8 5 17 11 2 4 5 2 4 3 4 3 1 3 4 4 1 2 1 7 7 8 6 1 2 4 2 2 3 1 4 4 2 1 6 8 9 10 10 10
6 3 3 5 4 2 10 14 6 3 3 1 2 2 2 6 5 3 2 4 2 2 6 2 6 6 10 3 3 3 3 4 1 4 3 5 3 4 4 5 7 7 7 8 8
6 3 3 3 5 6 16 9 1 5 2 4 1 1 3 0 1 2 3 6 2 5 3 4 3 5 1 2 3 5 3 6 5 3 3 3 4 4 1 2 3 3 4 4 6
9 4 5 7 3 11 15 4 4 3 4 6 2 1 1 2 3 3 4 5 2 3 4 5 2 3 5 6 6 9 6 4 5 5 4 4 2 6 5 2 2 2 4 4 4
9 3 6 9 11 11 6 5 4 2 3 2 3 4 5 6 4 3 4 4 7 4 3 3 6 5 6 2 4 4 5 4 3 2 6 7 5 1 3 6 5 4 3 5 5
6 1 4 3 7 4 5 5 2 1 3 4 3 7 6 6 5 5 5 3 1 3 5 3 5 3 7 4 3 5 4 2 2 2 2 4 3 4 2 4 6 6 7 8 7
4 3 3 3 1 3 5 3 0 2 2 4 3 2 4 6 4 5 2 1 1 3 3 5 2 3 4 3 6 6 2 5 4 3 4 5 5 3 6 10 7 7 5 7 8
3 3 5 1 1 5 3 3 3 4 2 3 1 3 2 2 2 3 2 1 2 4 7 3 3 6 4 4 2 5 4 4 2 4 3 4 5 2 1 3 6 7 8 8 8
3 2 10 1 3 1 2 3 2 2 6 5 4 3 2 1 2 2 1 3 2 3 3 2 4 2 5 3 5 5 1 3 4 6 4 2 7 3 3 2 4 7 8 9 8
2 2 5 2 2 3 4 2 3 2 3 2 2 2 2 2 2 3 3 4 5 1 5 5 1 3 7 6 3 4 3 3 3 3 5 3 5 5 1 5 6 8 9 9 8
3 3 4 5 1 3 3 2 2 4 3 6 3 6 3 3 5 2 2 3 6 3 9 7 3 6 6 7 3 4 4 4 4 3 3 5 8 9 8 8 10 12 10 10 12
4 1 2 2 3 3 1 2 2 2 2 4 4 4 2 2 4 1 0 4 4 4 4 4 4 4 5 6 3 6 6 4 6 5 4 5 8 10 6 10 12 10 10 16 17
2 2 4 1 3 2 2 1 4 2 2 1 6 3 2 5 6 4 2 3 5 2 2 2 2 3 3 5 5 6 5 5 3 2 5 7 12 1 6 8 11 14 16 18 18
5 2 3 3 4 2 2 3 5 5 4 5 7 4 2 4 7 8 6 3 4 6 3 2 4 2 4 3 5 6 4 3 2 3 5 5 5 5 15 14 13 16 18 18 17
Wind_Direction
2 359 357 6 48 76 72 46 28 25 23 19 12 1 351 342 345 357 299 325 317 326 336 335 357 345 57 78 143 119 57 20 340 56 289 335 141 295 8 90 23 32 135 151 162
6 10 21 50 90 88 64 41 32 27 23 16 8 357 344 338 344 350 40 8 333 323 325 353 338 1 22 343 78 89 95 202 222 165 129 9 88 9 69 33 36 93 66 128 151
18 27 45 75 90 78 55 39 32 25 20 13 4 354 339 337 21 292 7 352 336 321 316 320 304 75 33 12 319 142 173 186 225 195 186 145 37 76 125 318 214 135 130 146 160
39 46 66 79 81 65 45 33 25 19 15 10 2 355 354 13 130 290 335 338 349 38 35 31 21 35 33 20 338 73 110 161 195 219 79 96 102 72 49 221 178 162 141 153 168
62 70 79 85 69 40 25 17 13 10 8 2 359 357 359 17 269 319 348 350 4 26 42 55 37 36 10 330 1 66 344 108 166 186 156 126 55 112 141 111 143 166 143 158 155
92 91 94 87 53 17 3 1 359 358 357 352 352 355 21 52 286 333 340 350 352 6 21 51 359 222 64 338 84 282 250 344 111 261 292 118 55 5 153 221 197 237 194 171 165
133 122 121 115 22 352 345 341 341 342 345 344 342 346 67 226 288 295 318 328 312 329 339 348 103 49 169 348 307 160 13 359 34 336 204 123 9 252 61 48 310 264 242 204 159
186 172 168 185 287 323 328 329 329 328 331 331 335 357 258 327 300 291 326 322 359 319 318 329 334 118 25 320 14 30 50 15 315 354 4 90 250 3 10 21 325 251 238 229 209
194 203 214 258 303 323 322 315 309 312 318 319 347 49 291 327 283 299 292 329 333 340 333 328 59 61 15 58 13 10 43 358 333 15 352 55 341 335 344 6 345 332 280 297 307
136 204 225 265 315 323 320 311 304 312 327 28 77 26 314 297 254 274 307 335 349 344 12 32 40 38 26 58 251 256 23 342 347 329 16 26 348 319 23 27 0 350 315 288 263
43 169 224 268 319 326 337 347 20 353 34 224 215 210 271 326 294 347 360 355 33 47 15 8 64 10 305 249 186 107 91 104 253 301 147 43 295 15 14 30 19 13 358 339 282
36 40 185 271 321 328 336 55 185 124 312 250 233 265 269 272 292 329 87 59 50 37 351 20 84 346 324 59 121 72 93 343 298 323 96 7 57 97 17 17 29 26 21 17 35
35 55 65 359 330 352 329 326 316 314 79 299 212 188 210 146 198 73 92 99 73 30 33 125 275 339 62 349 26 95 116 230 225 328 3 44 31 36 17 28 32 27 40 51 47
30 51 50 355 39 341 325 349 349 245 61 283 264 274 151 121 11 230 101 131 37 19 37 29 331 4 48 59 20 38 328 270 248 73 293 42 265 298 332 4 38 21 26 17 48
3 18 8 2 338 26 336 345 335 86 55 281 222 171 110 135 156 254 105 38 130 11 79 349 28 36 49 334 9 258 1 334 15 97 89 348 76 249 2 10 6 24 21 21 27
340 299 312 314 310 349 342 333 99 46 4 6 41 187 99 53 239 96 71 43 67 83 18 155 181 55 280 356 25 304 341 39 49 72 46 274 102 290 306 359 348 49 58 32 14
342 270 276 292 300 341 336 51 51 99 337 325 340 303 201 292 213 129 82 26 41 62 3 347 18 353 26 21 350 37 46 355 6 9 224 263 335 248 356 47 13 101 55 47 2
353 258 277 279 298 320 360 53 83 1 349 334 343 38 71 341 17 94 85 50 18 69 73 73 327 26 335 66 254 14 98 134 295 230 252 316 251 92 78 27 357 25 37 30 8
358 18 293 291 313 327 70 59 186 358 300 355 35 52 357 348 55 67 52 90 18 25 113 100 289 346 39 349 64 325 26 222 148 342 39 271 102 275 4 13 7 338 19 359 349
8 353 277 308 245 60 74 187 40 338 19 54 87 56 29 348 37 37 62 309 93 41 123 202 296 18 314 59 19 90 270 22 11 353 306 292 290 257 346 356 344 6 19 349 348
24 46 1 352 210 49 128 203 112 14 73 54 131 91 49 10 50 28 12 327 113 37 60 93 111 297 15 50 326 4 20 39 112 151 224 297 257 203 274 358 347 343 335 323 311
35 51 356 296 46 10 130 183 123 12 40 44 90 89 132 37 29 77 79 56 69 124 91 64 129 240 259 251 254 136 230 116 114 279 238 221 276 154 143 4 325 309 302 294 286
64 265 352 132 102 333 315 42 63 77 25 65 81 97 70 93 92 60 48 7 12 159 167 178 16 9 353 355 339 59 274 203 144 73 222 165 262 178 272 315 293 293 292 285 286
61 19 332 40 82 117 25 2 102 41 74 75 53 62 65 60 20 109 44 14 360 73 79 89 134 159 193 222 164 278 256 277 164 136 237 240 287 299 317 316 317 311 291 292 298
35 286 181 315 341 348 20 305 166 141 61 47 36 71 120 40 356 84 355 346 18 16 56 98 199 203 245 253 245 250 270 220 223 213 191 264 263 284 303 307 303 295 286 304 306
67 37 357 318 304 327 39 206 154 130 112 58 121 163 84 160 196 241 177 186 215 29 86 20 251 171 277 265 278 282 230 232 233 212 268 266 285 37 295 286 299 307 303 304 296
28 45 105 299 344 73 256 198 192 125 357 143 147 129 188 229 211 221 206 209 199 166 170 143 129 88 262 337 327 301 211 204 279 268 248 275 271 302 314 310 306 304 300 293 297